Weather in Sigulda

Latvia     57°09′23″N   24°51′02″E
temp.,
°C
wind,
m/s
gust,
m/s
humid.,
%
clouds,
%
prec.,
mm/h
press.,
hPa
HPBL,
m
7 may, fri
fri700:00+4sw51195100 0.9 9991027
03:00+4sw61192100 1.6 1000968
06:00+4sw41095100 0.2 1000908
09:00+4wsw4796100 0.8 1002850
12:00+5wsw4695100 0.5 1004744
15:00+8sw347891 1.1 1004966
18:00+8wsw3576100 1.4 1003925
21:00+4wnw259620 1.6 1004135
8 may, sat
sat800:00+2wnw249697 0.0 1005147
03:00+2w389146 0.0 1006521
06:00+2wnw4994100 0.3 1007763
09:00+4wnw57675 0.3 10091092
12:00+7wnw595425 0.0 10101475
15:00+9nw58392 0.0 10121646
18:00+9nnw46410 0.0 10131134
21:00+4w23710 0.0 101554
9 may, sun
sun900:00+1sw11735 0.0 101610
03:000ssw23755 0.0 101741
06:000ssw2597100 0.0 1018110
09:00+7ssw477061 0.0 1019506
12:00+11ssw4646100 0.0 10191538
15:00+13ssw5736100 0.0 10181820
18:00+12s495599 0.0 10181574
21:00+9s51479100 0.6 1017748
10 may, mon
mon1000:00+11ssw51469100 0.0 1018768
03:00+10s5147751 0.0 1018524
06:00+10s5147677 0.0 1019461
09:00+13s5126464 0.0 1021518
12:00+18s69485 0.0 10211006
15:00+20s69445 0.0 10211329
18:00+20s5105282 0.0 10201195
21:00+15s51265100 0.0 1022800
11 may, tue
tue1100:00+13s414716 0.0 1022600
03:00+11sse5157547 0.0 1022517
06:00+10sse5157435 0.0 1022490
09:00+15sse614604 0.0 1022655
12:00+20s610415 0.0 10221103
15:00+22sse69371 0.0 10211363
18:00+21sse510455 0.0 10201286
21:00+16sse412595 0.0 1021646